Regional Weather Roundup
Issued by NWS Raleigh/Durham, NC

Home | Current Version | Previous Version | Text Only | Print | Product List | Glossary On
Versions: 1 2 3 4 5 6 7 8 9 10 11 12 13 14 15 16 17 18 19 20 21 22 23 24 25 26 27 28 29 30 31 32 33 34 35 36 37 38 39 40 41 42 43 44 45 46 47 48 49 50
000
ASUS42 KRAH 020710
RWRRAH
NORTH CAROLINA WEATHER ROUNDUP
NATIONAL WEATHER SERVICE RALEIGH NC
300 AM EDT TUE JUN 02 2015

NOTE: "FAIR" INDICATES FEW OR NO CLOUDS BELOW 12,000 FEET WITH NO
SIGNIFICANT WEATHER AND/OR OBSTRUCTIONS TO VISIBILITY.

NCZ001-053-055-056-065-067-020800-
WESTERN NORTH CAROLINA

CITY           SKY/WX    TMP DP  RH WIND       PRES   REMARKS
ASHEVILLE      MOCLDY    60  58  92 CALM      30.06F
JEFFERSON      CLOUDY    59  59 100 CALM      30.08F
MORGANTON        N/A     64  64 100 CALM      30.05F FOG
HICKORY        CLOUDY    65  64  97 W3        30.00F
RUTHERFORDTON  MOCLDY    63  63 100 CALM      30.02F
MOUNT AIRY       N/A     66  64  93 CALM      30.04F
BOONE          CLOUDY    59  59  98 CALM      30.09F
$$

NCZ021-022-025-041-071-084-088-020800-
CENTRAL NORTH CAROLINA

CITY           SKY/WX    TMP DP  RH WIND       PRES   REMARKS
CHARLOTTE      CLOUDY    68  62  81 S5        30.01F
GREENSBORO     CLOUDY    67  65  93 CALM      30.01F
WINSTON-SALEM  CLOUDY    67  64  90 VRB3      30.03S
RALEIGH-DURHAM MOCLDY    69  67  93 CALM      30.01F
FORT BRAGG     MOCLDY    71  67  88 SW5       30.01S
FAYETTEVILLE   PTCLDY    69  67  93 SW3       30.01F
BURLINGTON     MOCLDY    68  66  93 CALM      30.00F
LAURINBURG     MOCLDY    69  66  90 W6        30.02F
$$

NCZ011-015-027-028-043-044-047-080-103-020800-
NORTHEASTERN NORTH CAROLINA

CITY           SKY/WX    TMP DP  RH WIND       PRES   REMARKS
ROCKY MT-WILSO PTCLDY    69  69 100 CALM      30.01F FOG
GREENVILLE     PTCLDY    72  70  94 S6        30.03F
WASHINGTON     PTCLDY    72  68  88 S5        30.03S
ELIZABETH CITY PTCLDY    72  69  90 S6        30.02F
MANTEO         PTCLDY    74  69  84 SW12      30.04F
CAPE HATTERAS  MOCLDY    76  69  79 SW8       30.04F
$$

NCZ078-087-090-091-093-098-101-020800-
SOUTHEASTERN NORTH CAROLINA

CITY           SKY/WX    TMP DP  RH WIND       PRES   REMARKS
LUMBERTON      CLEAR     69  66  90 CALM      30.01F
GOLDSBORO      MOCLDY    72  69  91 CALM      29.99F
KINSTON        PTCLDY    71  69  93 S5        30.02F
KENANSVILLE    CLEAR     69  67  93 CALM      30.03S
NEW BERN       CLEAR     70  67  90 CALM      30.04F
CHERRY POINT   PTCLDY    71  67  87 S5        30.04F
BEAUFORT       PTCLDY    75  71  87 SW8       30.03F
JACKSONVILLE   CLEAR     71  68  90 S5        30.02F
WILMINGTON     MOCLDY    72  69  90 S3        30.02F
$$



USA.gov is the U.S. government's official web portal to all federal, state and local government web resources and services.